Location: Mount Cross
(36.6390°N, 79.4878°W)
Time: 00:27:22
(UTC+00:00)

Vanguard 2 Rocket - Pass Details

Date: 22 March 2023
Orbit: 554 x 3314 km, 32.9° (Epoch: 08 June)

Event Time Altitude Azimuth Distance (km) Brightness Sun altitude
Rises 00:02:59 0° 216° (SW) 3,484 10.3 -7.3°
Reaches altitude 10° 00:05:20 10° 206° (SSW) 2,798 9.7 -7.8°
Maximum altitude 00:11:28 33° 143° (SE) 2,179 8.5 -9.0°
Enters shadow 00:20:46 11° 87° (E) 4,406 9.7 -10.9°
